Location: Ashton River Estates
(39.1762°N, 77.0261°W)
Time: 22:34:55
(UTC+00:00)

ARGOS - Pass Details

Date: 29 October 2020
Orbit: 819 x 835 km, 98.4° (Epoch: 02 December)

Event Time Altitude Azimuth Distance (km) Brightness Sun altitude
Exits shadow 23:21:55 21° 80° (E) 1,787 4.3 -14.5°
Maximum altitude 23:22:53 22° 65° (ENE) 1,741 4.3 -14.7°
Drops below altitude 10° 23:26:58 10° 16° (NNE) 2,454 5.4 -15.4°
Sets 23:29:48 0° 2° (N) 3,392 6.3 -16.0°
